QPF
0.00 0.00 0.00 0.00 0.01 0.04 0.05 0.04 0.05 0.03 0.03 0.02 0.01 0.01 0.02 0.02 0.02 0.02 0.03 0.03 0.01 0.02 0.04 0.03 0.04 0.04 0.04 0.06 0.06 0.05 0.04 0.03 0.03 0.02 0.03 0.02 0.02 0.02 0.02 0.02 0.02 0.02 0.01
0.01 0.01 0.01 0.01 0.01 0.02 0.02 0.02 0.04 0.04 0.03 0.01 0.01 0.01 0.01 0.01 0.01 0.03 0.03 0.02 0.01 0.02 0.03 0.04 0.05 0.05 0.05 0.06 0.07 0.07 0.05 0.05 0.05 0.04 0.03 0.03 0.03 0.03 0.03 0.03 0.02 0.02 0.01
0.00 0.01 0.01 0.01 0.01 0.01 0.01 0.02 0.02 0.03 0.02 0.01 0.01 0.01 0.01 0.01 0.01 0.03 0.02 0.02 0.02 0.03 0.03 0.03 0.04 0.04 0.05 0.06 0.06 0.06 0.05 0.06 0.06 0.05 0.06 0.05 0.06 0.05 0.04 0.03 0.03 0.03 0.03
0.01 0.01 0.00 0.00 0.01 0.01 0.02 0.03 0.03 0.03 0.03 0.02 0.02 0.02 0.01 0.01 0.01 0.02 0.03 0.04 0.04 0.04 0.03 0.04 0.05 0.04 0.04 0.05 0.05 0.04 0.05 0.04 0.05 0.05 0.05 0.05 0.06 0.05 0.06 0.06 0.06 0.05 0.04
0.00 0.01 0.01 0.01 0.01 0.01 0.01 0.02 0.03 0.02 0.02 0.02 0.02 0.02 0.01 0.01 0.01 0.02 0.04 0.05 0.04 0.04 0.04 0.05 0.05 0.04 0.04 0.04 0.05 0.06 0.05 0.04 0.05 0.05 0.04 0.04 0.04 0.04 0.04 0.06 0.07 0.07 0.06
0.01 0.01 0.01 0.02 0.03 0.01 0.01 0.01 0.02 0.02 0.02 0.02 0.01 0.02 0.02 0.02 0.02 0.03 0.04 0.04 0.03 0.04 0.04 0.04 0.05 0.05 0.05 0.06 0.05 0.05 0.04 0.03 0.03 0.04 0.03 0.03 0.04 0.03 0.03 0.03 0.04 0.06 0.06
0.02 0.01 0.02 0.02 0.03 0.02 0.02 0.02 0.03 0.02 0.02 0.02 0.02 0.01 0.02 0.02 0.02 0.03 0.03 0.04 0.03 0.04 0.04 0.03 0.04 0.04 0.04 0.04 0.04 0.03 0.03 0.02 0.02 0.03 0.03 0.03 0.03 0.03 0.03 0.03 0.03 0.03 0.03
0.01 0.01 0.02 0.03 0.05 0.06 0.04 0.05 0.07 0.05 0.04 0.04 0.02 0.01 0.02 0.02 0.02 0.02 0.03 0.03 0.03 0.03 0.03 0.03 0.03 0.03 0.03 0.03 0.03 0.03 0.02 0.02 0.02 0.03 0.04 0.03 0.02 0.02 0.02 0.02 0.03 0.02 0.01
0.01 0.02 0.02 0.02 0.04 0.05 0.05 0.05 0.12 0.10 0.08 0.10 0.07 0.04 0.03 0.03 0.02 0.02 0.02 0.02 0.02 0.02 0.03 0.02 0.02 0.03 0.04 0.04 0.04 0.03 0.02 0.02 0.03 0.05 0.05 0.04 0.04 0.03 0.02 0.01 0.02 0.03 0.02
0.02 0.02 0.02 0.02 0.01 0.01 0.03 0.05 0.08 0.09 0.07 0.09 0.08 0.04 0.04 0.03 0.02 0.02 0.01 0.01 0.01 0.02 0.03 0.02 0.03 0.04 0.04 0.04 0.04 0.03 0.02 0.03 0.04 0.04 0.04 0.04 0.04 0.03 0.02 0.02 0.02 0.03 0.03
0.03 0.02 0.02 0.02 0.01 0.01 0.02 0.03 0.04 0.05 0.04 0.04 0.05 0.04 0.03 0.02 0.02 0.01 0.01 0.01 0.01 0.02 0.02 0.02 0.02 0.03 0.03 0.03 0.03 0.02 0.03 0.03 0.04 0.04 0.03 0.03 0.03 0.03 0.02 0.02 0.02 0.03 0.03
0.03 0.04 0.04 0.03 0.02 0.01 0.01 0.02 0.02 0.03 0.04 0.03 0.04 0.04 0.03 0.02 0.01 0.01 0.00 0.00 0.01 0.01 0.01 0.01 0.01 0.01 0.02 0.03 0.02 0.02 0.02 0.02 0.02 0.03 0.03 0.02 0.02 0.02 0.02 0.03 0.03 0.03 0.04
0.01 0.01 0.02 0.01 0.01 0.01 0.01 0.02 0.02 0.03 0.03 0.02 0.02 0.02 0.02 0.02 0.02 0.01 0.01 0.01 0.01 0.01 0.01 0.01 0.01 0.01 0.01 0.02 0.02 0.02 0.02 0.02 0.02 0.02 0.02 0.02 0.01 0.01 0.02 0.03 0.02 0.02 0.02
0.00 0.00 0.00 0.00 0.01 0.01 0.01 0.01 0.02 0.02 0.02 0.02 0.01 0.01 0.01 0.02 0.01 0.01 0.01 0.01 0.01 0.01 0.01 0.01 0.01 0.01 0.01 0.01 0.01 0.01 0.01 0.02 0.02 0.02 0.01 0.02 0.02 0.01 0.02 0.02 0.02 0.02 0.02
0.00 0.00 0.00 0.01 0.01 0.01 0.02 0.02 0.02 0.02 0.01 0.01 0.01 0.01 0.01 0.01 0.01 0.00 0.00 0.01 0.01 0.01 0.01 0.02 0.01 0.01 0.01 0.00 0.01 0.01 0.01 0.01 0.01 0.01 0.01 0.01 0.01 0.01 0.01 0.02 0.02 0.02 0.02
0.00 0.00 0.01 0.01 0.01 0.02 0.02 0.02 0.02 0.02 0.01 0.01 0.01 0.01 0.01 0.01 0.01 0.01 0.01 0.01 0.01 0.01 0.01 0.01 0.02 0.01 0.01 0.01 0.01 0.01 0.01 0.01 0.01 0.02 0.02 0.02 0.01 0.01 0.01 0.01 0.01 0.02 0.02
0.01 0.01 0.01 0.01 0.01 0.01 0.01 0.01 0.01 0.01 0.01 0.01 0.01 0.01 0.02 0.01 0.02 0.01 0.01 0.02 0.02 0.01 0.02 0.02 0.02 0.01 0.02 0.01 0.01 0.01 0.01 0.01 0.01 0.02 0.02 0.02 0.02 0.02 0.01 0.01 0.01 0.01 0.02
0.01 0.00 0.00 0.00 0.00 0.01 0.01 0.00 0.00 0.00 0.00 0.00 0.00 0.01 0.03 0.03 0.03 0.02 0.01 0.02 0.02 0.01 0.01 0.01 0.02 0.01 0.01 0.01 0.01 0.01 0.01 0.01 0.01 0.01 0.01 0.01 0.02 0.03 0.02 0.01 0.01 0.01 0.02
0.01 0.00 0.00 0.00 0.00 0.00 0.00 0.00 0.00 0.00 0.00 0.00 0.01 0.01 0.01 0.02 0.02 0.01 0.01 0.01 0.01 0.01 0.01 0.01 0.01 0.01 0.01 0.01 0.02 0.02 0.01 0.01 0.01 0.01 0.01 0.01 0.01 0.02 0.02 0.01 0.01 0.01 0.02
0.01 0.00 0.00 0.00 0.00 0.00 0.00 0.00 0.00 0.00 0.01 0.01 0.01 0.01 0.00 0.01 0.00 0.00 0.01 0.01 0.01 0.01 0.01 0.01 0.01 0.02 0.02 0.02 0.02 0.02 0.01 0.01 0.01 0.02 0.01 0.01 0.01 0.02 0.01 0.00 0.00 0.01 0.01
0.00 0.00 0.00 0.00 0.00 0.00 0.00 0.00 0.01 0.01 0.01 0.00 0.00 0.00 0.00 0.00 0.00 0.00 0.01 0.01 0.01 0.01 0.01 0.01 0.01 0.01 0.01 0.01 0.01 0.01 0.01 0.01 0.02 0.01 0.01 0.01 0.02 0.02 0.02 0.02 0.02 0.02 0.03
0.00 0.00 0.00 0.00 0.00 0.00 0.01 0.01 0.01 0.01 0.01 0.00 0.00 0.00 0.00 0.00 0.00 0.00 0.01 0.01 0.01 0.01 0.01 0.01 0.01 0.01 0.01 0.01 0.01 0.00 0.01 0.01 0.01 0.01 0.01 0.01 0.01 0.01 0.01 0.02 0.02 0.02 0.02
0.00 0.01 0.01 0.00 0.01 0.01 0.01 0.02 0.01 0.01 0.01 0.01 0.01 0.01 0.00 0.00 0.00 0.01 0.01 0.01 0.01 0.01 0.01 0.01 0.01 0.01 0.00 0.01 0.01 0.01 0.00 0.00 0.01 0.01 0.01 0.01 0.01 0.01 0.01 0.01 0.02 0.02 0.01
0.01 0.01 0.01 0.01 0.02 0.02 0.03 0.04 0.03 0.02 0.02 0.02 0.02 0.02 0.01 0.01 0.01 0.01 0.01 0.01 0.01 0.01 0.01 0.01 0.01 0.01 0.01 0.01 0.01 0.01 0.01 0.01 0.00 0.00 0.01 0.01 0.01 0.01 0.01 0.01 0.02 0.03 0.02
0.02 0.04 0.04 0.02 0.02 0.02 0.03 0.03 0.03 0.02 0.02 0.01 0.02 0.03 0.03 0.02 0.02 0.01 0.01 0.01 0.01 0.01 0.01 0.01 0.01 0.01 0.01 0.02 0.02 0.01 0.02 0.02 0.02 0.02 0.01 0.01 0.01 0.01 0.01 0.01 0.01 0.01 0.01
0.02 0.03 0.05 0.05 0.03 0.03 0.03 0.03 0.02 0.01 0.01 0.01 0.02 0.02 0.02 0.02 0.01 0.01 0.01 0.01 0.01 0.01 0.01 0.01 0.01 0.01 0.02 0.02 0.02 0.02 0.03 0.03 0.03 0.03 0.01 0.02 0.02 0.01 0.01 0.01 0.00 0.00 0.01
MSLP
1014.29 1014.32 1014.35 1014.35 1014.32 1014.25 1014.14 1013.99 1013.82 1013.61 1013.39 1013.15 1012.91 1012.66 1012.41 1012.17 1011.94 1011.70 1011.48 1011.25 1011.03 1010.82 1010.61 1010.43 1010.28 1010.17 1010.09 1010.03 1009.99 1009.95 1009.88 1009.77 1009.59 1009.35 1009.04 1008.69 1008.31 1007.94 1007.61 1007.34 1007.17 1007.11 1007.17
1014.17 1014.20 1014.24 1014.25 1014.22 1014.16 1014.06 1013.92 1013.76 1013.60 1013.43 1013.25 1013.07 1012.88 1012.68 1012.46 1012.23 1011.98 1011.72 1011.46 1011.21 1010.97 1010.75 1010.57 1010.43 1010.32 1010.24 1010.18 1010.12 1010.05 1009.93 1009.77 1009.55 1009.26 1008.91 1008.52 1008.11 1007.70 1007.32 1007.00 1006.76 1006.63 1006.61
1014.03 1014.05 1014.08 1014.10 1014.07 1014.02 1013.93 1013.82 1013.71 1013.61 1013.51 1013.42 1013.32 1013.20 1013.06 1012.88 1012.65 1012.39 1012.11 1011.82 1011.54 1011.28 1011.05 1010.87 1010.72 1010.61 1010.52 1010.44 1010.35 1010.23 1010.07 1009.85 1009.58 1009.25 1008.88 1008.46 1008.03 1007.59 1007.18 1006.82 1006.53 1006.33 1006.22
1013.89 1013.89 1013.91 1013.91 1013.90 1013.85 1013.79 1013.72 1013.67 1013.63 1013.62 1013.61 1013.60 1013.57 1013.49 1013.35 1013.14 1012.89 1012.59 1012.28 1011.97 1011.69 1011.45 1011.26 1011.11 1010.98 1010.88 1010.76 1010.63 1010.46 1010.24 1009.97 1009.66 1009.30 1008.90 1008.47 1008.03 1007.59 1007.16 1006.77 1006.44 1006.17 1005.98
1013.74 1013.72 1013.73 1013.73 1013.73 1013.70 1013.66 1013.64 1013.64 1013.67 1013.73 1013.81 1013.88 1013.92 1013.90 1013.80 1013.62 1013.37 1013.07 1012.74 1012.42 1012.13 1011.88 1011.67 1011.50 1011.36 1011.22 1011.07 1010.89 1010.67 1010.40 1010.09 1009.73 1009.35 1008.94 1008.51 1008.07 1007.64 1007.21 1006.80 1006.42 1006.09 1005.82
1013.60 1013.57 1013.58 1013.60 1013.60 1013.60 1013.59 1013.60 1013.64 1013.73 1013.85 1013.99 1014.12 1014.21 1014.23 1014.17 1014.01 1013.77 1013.47 1013.14 1012.81 1012.51 1012.24 1012.02 1011.84 1011.67 1011.50 1011.31 1011.09 1010.82 1010.50 1010.15 1009.77 1009.37 1008.96 1008.54 1008.11 1007.69 1007.26 1006.84 1006.43 1006.04 1005.70
1013.48 1013.46 1013.49 1013.53 1013.56 1013.57 1013.59 1013.63 1013.69 1013.81 1013.96 1014.13 1014.30 1014.42 1014.47 1014.43 1014.29 1014.06 1013.76 1013.43 1013.10 1012.79 1012.51 1012.28 1012.08 1011.89 1011.69 1011.46 1011.19 1010.89 1010.54 1010.16 1009.76 1009.35 1008.95 1008.54 1008.14 1007.73 1007.31 1006.88 1006.44 1006.00 1005.59
1013.39 1013.41 1013.47 1013.54 1013.60 1013.64 1013.68 1013.73 1013.81 1013.93 1014.08 1014.26 1014.43 1014.56 1014.62 1014.58 1014.45 1014.23 1013.94 1013.61 1013.28 1012.97 1012.69 1012.44 1012.22 1012.01 1011.79 1011.53 1011.24 1010.90 1010.53 1010.13 1009.73 1009.32 1008.93 1008.54 1008.16 1007.76 1007.34 1006.90 1006.44 1005.96 1005.49
1013.32 1013.40 1013.51 1013.63 1013.73 1013.80 1013.85 1013.91 1013.98 1014.09 1014.23 1014.39 1014.54 1014.66 1014.71 1014.67 1014.54 1014.32 1014.04 1013.72 1013.39 1013.09 1012.81 1012.56 1012.33 1012.10 1011.86 1011.59 1011.27 1010.91 1010.53 1010.13 1009.72 1009.32 1008.94 1008.57 1008.19 1007.81 1007.39 1006.94 1006.46 1005.95 1005.42
1013.27 1013.41 1013.60 1013.77 1013.91 1014.01 1014.09 1014.14 1014.21 1014.30 1014.41 1014.54 1014.67 1014.76 1014.79 1014.75 1014.61 1014.40 1014.13 1013.82 1013.51 1013.21 1012.94 1012.69 1012.46 1012.23 1011.97 1011.68 1011.36 1010.99 1010.59 1010.19 1009.78 1009.39 1009.01 1008.64 1008.28 1007.89 1007.48 1007.02 1006.51 1005.97 1005.41
1013.20 1013.43 1013.68 1013.92 1014.11 1014.25 1014.34 1014.40 1014.46 1014.54 1014.63 1014.74 1014.83 1014.90 1014.92 1014.86 1014.72 1014.51 1014.26 1013.97 1013.68 1013.40 1013.14 1012.90 1012.67 1012.43 1012.17 1011.87 1011.54 1011.16 1010.76 1010.35 1009.94 1009.54 1009.16 1008.79 1008.42 1008.03 1007.60 1007.13 1006.60 1006.04 1005.45
1013.10 1013.42 1013.74 1014.04 1014.27 1014.45 1014.57 1014.65 1014.72 1014.79 1014.87 1014.96 1015.04 1015.09 1015.09 1015.02 1014.89 1014.69 1014.45 1014.19 1013.92 1013.66 1013.42 1013.19 1012.97 1012.73 1012.46 1012.16 1011.81 1011.43 1011.01 1010.58 1010.16 1009.75 1009.35 1008.97 1008.58 1008.18 1007.74 1007.25 1006.71 1006.13 1005.52
1012.97 1013.36 1013.74 1014.09 1014.37 1014.59 1014.74 1014.86 1014.95 1015.04 1015.12 1015.21 1015.28 1015.32 1015.31 1015.24 1015.11 1014.93 1014.71 1014.46 1014.22 1013.98 1013.76 1013.54 1013.33 1013.09 1012.82 1012.50 1012.14 1011.73 1011.30 1010.85 1010.40 1009.96 1009.54 1009.13 1008.72 1008.30 1007.84 1007.34 1006.78 1006.19 1005.57
1012.80 1013.24 1013.68 1014.07 1014.40 1014.65 1014.85 1015.01 1015.13 1015.25 1015.35 1015.45 1015.52 1015.56 1015.55 1015.48 1015.35 1015.18 1014.97 1014.75 1014.52 1014.31 1014.10 1013.89 1013.68 1013.44 1013.16 1012.82 1012.44 1012.01 1011.55 1011.07 1010.59 1010.12 1009.66 1009.22 1008.78 1008.33 1007.85 1007.33 1006.77 1006.17 1005.55
1012.59 1013.08 1013.55 1013.98 1014.35 1014.65 1014.89 1015.10 1015.27 1015.42 1015.55 1015.67 1015.75 1015.79 1015.77 1015.70 1015.57 1015.40 1015.20 1014.99 1014.78 1014.58 1014.38 1014.18 1013.97 1013.71 1013.42 1013.06 1012.65 1012.19 1011.69 1011.18 1010.66 1010.15 1009.66 1009.19 1008.72 1008.24 1007.73 1007.20 1006.63 1006.02 1005.41
1012.36 1012.88 1013.38 1013.84 1014.24 1014.59 1014.88 1015.14 1015.36 1015.56 1015.72 1015.85 1015.94 1015.98 1015.96 1015.87 1015.74 1015.56 1015.36 1015.16 1014.95 1014.76 1014.56 1014.36 1014.14 1013.87 1013.56 1013.18 1012.74 1012.25 1011.71 1011.16 1010.61 1010.06 1009.54 1009.03 1008.52 1008.02 1007.49 1006.94 1006.36 1005.75 1005.14
1012.12 1012.66 1013.18 1013.66 1014.11 1014.50 1014.85 1015.16 1015.43 1015.66 1015.86 1016.00 1016.09 1016.12 1016.09 1015.99 1015.84 1015.66 1015.45 1015.24 1015.03 1014.83 1014.64 1014.43 1014.20 1013.92 1013.58 1013.18 1012.71 1012.19 1011.63 1011.04 1010.46 1009.88 1009.32 1008.78 1008.25 1007.72 1007.17 1006.60 1006.01 1005.40 1004.78
1011.89 1012.44 1012.98 1013.50 1013.98 1014.41 1014.81 1015.17 1015.48 1015.75 1015.96 1016.12 1016.21 1016.23 1016.18 1016.06 1015.89 1015.69 1015.47 1015.25 1015.04 1014.84 1014.64 1014.43 1014.18 1013.89 1013.53 1013.11 1012.62 1012.08 1011.49 1010.88 1010.27 1009.68 1009.09 1008.53 1007.97 1007.41 1006.84 1006.25 1005.64 1005.02 1004.41
1011.68 1012.25 1012.81 1013.36 1013.87 1014.35 1014.78 1015.18 1015.53 1015.82 1016.05 1016.21 1016.29 1016.29 1016.23 1016.09 1015.91 1015.70 1015.48 1015.25 1015.04 1014.84 1014.64 1014.42 1014.17 1013.87 1013.50 1013.06 1012.56 1012.00 1011.40 1010.78 1010.15 1009.53 1008.93 1008.34 1007.76 1007.18 1006.59 1005.98 1005.35 1004.72 1004.10
1011.52 1012.11 1012.70 1013.27 1013.81 1014.32 1014.78 1015.20 1015.57 1015.87 1016.11 1016.26 1016.34 1016.33 1016.25 1016.11 1015.92 1015.71 1015.49 1015.28 1015.08 1014.88 1014.69 1014.48 1014.22 1013.92 1013.54 1013.10 1012.59 1012.02 1011.41 1010.78 1010.15 1009.52 1008.90 1008.29 1007.69 1007.08 1006.47 1005.84 1005.20 1004.56 1003.94
1011.43 1012.04 1012.65 1013.24 1013.80 1014.32 1014.80 1015.23 1015.60 1015.90 1016.13 1016.28 1016.34 1016.33 1016.25 1016.11 1015.93 1015.74 1015.54 1015.35 1015.17 1015.00 1014.82 1014.62 1014.38 1014.08 1013.71 1013.26 1012.75 1012.18 1011.57 1010.93 1010.28 1009.64 1009.01 1008.38 1007.76 1007.13 1006.49 1005.85 1005.20 1004.56 1003.95
1011.44 1012.07 1012.69 1013.28 1013.85 1014.37 1014.84 1015.26 1015.61 1015.90 1016.11 1016.24 1016.30 1016.29 1016.21 1016.09 1015.93 1015.77 1015.61 1015.45 1015.31 1015.17 1015.02 1014.84 1014.62 1014.33 1013.97 1013.54 1013.03 1012.46 1011.84 1011.20 1010.54 1009.88 1009.23 1008.58 1007.94 1007.29 1006.64 1005.99 1005.34 1004.71 1004.12
1011.57 1012.20 1012.82 1013.40 1013.94 1014.44 1014.88 1015.27 1015.59 1015.84 1016.02 1016.14 1016.19 1016.17 1016.11 1016.02 1015.90 1015.78 1015.66 1015.55 1015.46 1015.36 1015.25 1015.10 1014.91 1014.64 1014.29 1013.87 1013.36 1012.79 1012.17 1011.52 1010.85 1010.17 1009.51 1008.84 1008.18 1007.52 1006.87 1006.22 1005.59 1004.98 1004.43
1011.81 1012.42 1013.02 1013.57 1014.08 1014.53 1014.92 1015.25 1015.52 1015.73 1015.88 1015.97 1016.00 1015.99 1015.95 1015.88 1015.80 1015.72 1015.66 1015.61 1015.56 1015.51 1015.44 1015.33 1015.16 1014.92 1014.59 1014.17 1013.68 1013.11 1012.48 1011.82 1011.14 1010.45 1009.77 1009.09 1008.42 1007.76 1007.12 1006.49 1005.88 1005.33 1004.83
1012.12 1012.71 1013.26 1013.77 1014.22 1014.61 1014.94 1015.20 1015.41 1015.57 1015.67 1015.73 1015.75 1015.73 1015.70 1015.66 1015.62 1015.58 1015.57 1015.56 1015.57 1015.56 1015.53 1015.46 1015.32 1015.10 1014.79 1014.39 1013.90 1013.34 1012.71 1012.04 1011.35 1010.66 1009.96 1009.28 1008.62 1007.98 1007.35 1006.76 1006.21 1005.71 1005.27
1012.44 1012.99 1013.49 1013.94 1014.33 1014.65 1014.91 1015.11 1015.26 1015.36 1015.42 1015.44 1015.44 1015.42 1015.39 1015.36 1015.35 1015.35 1015.37 1015.40 1015.44 1015.48 1015.48 1015.44 1015.33 1015.13 1014.85 1014.46 1013.99 1013.44 1012.82 1012.16 1011.47 1010.78 1010.10 1009.43 1008.79 1008.18 1007.60 1007.05 1006.56 1006.12 1005.75
Thickness
5806 5804 5801 5798 5793 5789 5785 5782 5779 5777 5775 5774 5773 5771 5770 5771 5770 5770 5767 5766 5765 5765 5764 5764 5762 5762 5761 5759 5760 5759 5758 5757 5757 5756 5754 5756 5757 5756 5755 5755 5755 5754 5752
5806 5803 5801 5798 5795 5790 5786 5783 5780 5779 5777 5775 5773 5772 5771 5772 5772 5770 5767 5766 5765 5765 5765 5762 5763 5762 5760 5758 5758 5757 5756 5756 5756 5754 5751 5749 5750 5752 5755 5753 5752 5752 5751
5809 5805 5802 5799 5797 5792 5788 5787 5783 5781 5778 5777 5775 5773 5771 5771 5771 5769 5768 5766 5765 5764 5763 5762 5762 5761 5762 5760 5758 5757 5754 5753 5755 5754 5750 5746 5743 5746 5750 5750 5750 5748 5748
5815 5811 5806 5802 5799 5797 5794 5789 5785 5782 5780 5777 5776 5774 5771 5769 5769 5769 5768 5766 5765 5764 5764 5762 5761 5760 5761 5758 5759 5758 5756 5753 5752 5752 5751 5749 5747 5742 5741 5746 5748 5746 5744
5819 5814 5811 5807 5804 5801 5797 5793 5788 5784 5781 5779 5776 5773 5773 5772 5772 5770 5767 5765 5766 5764 5763 5762 5760 5759 5760 5758 5756 5755 5754 5754 5752 5751 5749 5747 5746 5745 5740 5737 5739 5742 5743
5822 5818 5815 5811 5807 5804 5801 5797 5790 5785 5783 5780 5778 5775 5773 5771 5770 5768 5766 5766 5767 5765 5763 5762 5760 5759 5759 5757 5755 5754 5753 5751 5749 5749 5749 5746 5744 5741 5740 5737 5736 5736 5738
5823 5819 5815 5810 5807 5804 5801 5798 5792 5786 5784 5781 5779 5777 5774 5772 5769 5769 5767 5766 5767 5765 5762 5762 5759 5758 5757 5756 5755 5752 5751 5749 5747 5745 5746 5745 5744 5742 5739 5736 5734 5732 5735
5824 5820 5817 5813 5809 5806 5802 5798 5793 5788 5785 5782 5780 5778 5776 5775 5774 5771 5770 5768 5767 5766 5763 5760 5758 5757 5755 5755 5752 5752 5749 5747 5745 5744 5741 5741 5741 5740 5738 5735 5731 5728 5730
5823 5821 5819 5815 5811 5808 5803 5800 5794 5789 5785 5782 5780 5778 5776 5775 5774 5771 5769 5769 5766 5765 5761 5759 5758 5756 5753 5752 5750 5748 5745 5744 5743 5742 5740 5738 5738 5737 5736 5734 5731 5725 5722
5822 5820 5818 5815 5812 5809 5805 5802 5796 5790 5786 5783 5781 5779 5776 5775 5773 5771 5768 5766 5764 5762 5759 5758 5756 5754 5751 5749 5747 5746 5743 5740 5739 5737 5734 5733 5735 5733 5732 5731 5730 5727 5723
5820 5818 5816 5814 5811 5808 5805 5800 5795 5790 5786 5784 5781 5779 5777 5775 5772 5769 5767 5765 5763 5760 5757 5756 5753 5751 5748 5746 5744 5743 5740 5737 5735 5734 5732 5729 5728 5728 5728 5728 5726 5724 5721
5818 5817 5814 5810 5807 5804 5802 5798 5795 5791 5787 5784 5781 5778 5776 5774 5772 5769 5767 5764 5762 5760 5757 5754 5751 5749 5746 5744 5741 5738 5737 5734 5732 5730 5728 5726 5726 5723 5723 5722 5720 5719 5716
5812 5811 5808 5805 5802 5800 5798 5796 5793 5790 5787 5784 5781 5778 5775 5772 5770 5768 5765 5763 5760 5758 5755 5753 5749 5747 5744 5741 5739 5735 5733 5731 5729 5727 5724 5723 5721 5718 5718 5716 5716 5715 5715
5805 5804 5801 5799 5797 5795 5794 5792 5790 5790 5787 5783 5780 5776 5773 5770 5769 5767 5764 5761 5758 5755 5753 5750 5747 5745 5742 5739 5736 5733 5730 5728 5726 5724 5721 5720 5717 5714 5713 5712 5710 5709 5707
5800 5799 5797 5795 5793 5792 5790 5789 5787 5786 5784 5780 5777 5774 5771 5769 5766 5764 5761 5758 5756 5753 5749 5747 5744 5742 5740 5737 5733 5730 5728 5725 5722 5720 5718 5716 5713 5710 5707 5708 5706 5704 5702
5797 5796 5794 5792 5790 5788 5787 5785 5783 5781 5779 5776 5774 5771 5768 5765 5762 5759 5757 5754 5751 5749 5746 5743 5740 5738 5737 5731 5726 5724 5724 5722 5719 5716 5714 5713 5710 5706 5702 5699 5697 5695 5695
5793 5792 5791 5789 5787 5786 5784 5782 5780 5777 5774 5772 5769 5767 5764 5761 5758 5756 5752 5749 5746 5744 5741 5739 5736 5734 5730 5725 5721 5718 5718 5718 5715 5712 5710 5710 5708 5703 5700 5697 5693 5691 5688
5788 5788 5787 5786 5785 5783 5780 5778 5776 5772 5770 5767 5764 5762 5759 5756 5754 5750 5747 5744 5742 5740 5737 5734 5732 5729 5726 5721 5717 5714 5714 5714 5711 5709 5706 5703 5701 5699 5695 5693 5692 5690 5687
5783 5783 5784 5784 5781 5778 5775 5772 5769 5767 5764 5761 5759 5757 5755 5751 5748 5745 5742 5739 5737 5735 5733 5731 5728 5725 5721 5716 5712 5708 5710 5709 5707 5705 5702 5698 5695 5690 5687 5687 5686 5684 5683
5777 5777 5778 5777 5773 5770 5768 5764 5762 5759 5757 5756 5754 5752 5750 5747 5744 5741 5737 5735 5732 5730 5728 5725 5723 5721 5717 5712 5708 5703 5707 5704 5703 5700 5698 5693 5689 5684 5681 5681 5680 5678 5677
5769 5769 5768 5767 5765 5763 5761 5756 5754 5752 5751 5750 5748 5746 5744 5742 5739 5736 5733 5730 5727 5724 5721 5719 5718 5716 5713 5708 5703 5698 5700 5700 5698 5696 5694 5691 5683 5678 5675 5673 5673 5671 5669
5758 5759 5757 5756 5756 5755 5752 5747 5745 5745 5744 5742 5739 5737 5736 5736 5735 5730 5726 5724 5721 5718 5715 5713 5711 5711 5708 5703 5699 5694 5691 5690 5691 5690 5689 5685 5677 5672 5669 5667 5666 5663 5661
5748 5748 5748 5746 5746 5745 5744 5740 5738 5738 5735 5732 5730 5729 5728 5727 5726 5723 5720 5718 5716 5714 5712 5709 5707 5706 5704 5699 5693 5688 5685 5682 5682 5683 5679 5675 5670 5667 5666 5662 5660 5658 5659
5738 5738 5738 5736 5735 5735 5734 5733 5730 5729 5726 5724 5723 5721 5720 5719 5718 5716 5716 5714 5711 5708 5706 5704 5701 5699 5697 5693 5689 5685 5680 5676 5675 5675 5672 5667 5665 5663 5662 5660 5658 5656 5656
5728 5728 5727 5726 5725 5725 5724 5723 5721 5719 5718 5716 5715 5714 5713 5712 5709 5708 5706 5705 5702 5699 5696 5696 5694 5690 5688 5683 5677 5675 5675 5673 5671 5667 5667 5667 5665 5663 5661 5659 5657 5654 5652
5717 5717 5717 5716 5715 5715 5713 5713 5712 5711 5708 5707 5706 5707 5706 5704 5704 5702 5699 5695 5692 5688 5685 5682 5680 5681 5676 5671 5668 5665 5663 5661 5659 5659 5662 5662 5661 5660 5658 5655 5653 5650 5648